ARIANE 5 R/B, 41905

Orbit data source: Space-Track

ARIANE 5 R/B, 41905 is space debris in HEO originally from a launch on Wed, 21 Dec 2016 UTC launched from the French Guiana (FRGUI). Debris objects in space refer to the collection of defunct objects orbiting the Earth. Examples of debris include non-operational satellites, rocket bodies, and fragments generated from explosions, collisions, or faulty payload assembly.

Loading next visibility...
Identifier
41905, 2016-082C
Orbit
HEO
Country
Flag of FRFR
Related business
Manufacturer
Airbus Safran
Mission
Spacecraft
Bus & Motor
ESC-A, Unknown motor
Mass
~5,000 kg wet, ~5,000 kg dry
Launch date (UTC)
2016-12-21 (10 years ago)
Launch vehicle
Unknown
Launch site
French Guiana (FRGUI)
Object type
Payload
Rocket body
Debris
Shape & HBR
Cyl + 1 Nozzle, 3.5 m
Radar Cross Section
41.627 m², Large (>1 m²)

Expand to show TLE details & history
Last TLE update: 2 days ago

TLE from 2 days ago
0 ARIANE 5 R/B
1 41905U 16082C   26171.19778279  .00011696  00000-0  12783-2 0  9999
2 41905   6.6497  93.9186 7004980  29.0889 356.0777  2.65599805 84346
Epoch: 2026-06-20T04:44Z
TLE epoch observation values (Epoch: 2026-06-20T04:44:48.433Z)
Latitude
-0.00001°
Longitude
114.22207°
Altitude
570.738 km
Speed
9.829 km/s
True Right ascension
06h 15m 21s
True Declination
0° 00' 00"
Sunlit
Object was in daylight at epoch
Visualization orbit readout
Latitude
Unknown
Longitude
Unknown
Altitude
Unknown
Speed
Unknown
Apparent Right ascension
Unknown
Apparent Declination
Unknown
Sunlit
N/A
Visualization observer readout
Local Sidereal Time
00:50:36
Azimuth
Unknown
Elevation
Unknown
Doppler factor
Unknown
Orbital elements
Apogee altitude
31,084.588 km
Perigee altitude
220.025 km
Semi-major axis
22,030.444 km
Eccentricity
0.7005
Inclination
6.6497°
RAAN
93.9186°
Arg. of periapsis
29.0889°
True anomaly
329.97076°
Mean anomaly
356.0777°
Eccentric anomaly
347.15496°
Mean motion
0.66376 °/min
Orbital period
542.37 mins
BSTAR
0.0012783
Loading maneuver chart data...
Computing Atmospheric mass density...
Loading historical data...
Loading historical data...
Loading historical data...
Loading historical data...
Loading historical data...
Loading historical data...
Loading historical data...
Other satellites on launch #82 in the year 2016 (2016-12-21 UTC)

Documentation

Showing up to 5 results
|